Location: Ar Ranvel
(48.3000°N, 4.8833°W)
Time: 12:51:00
(UTC+00:00)

FALCON 9 DEB - Visible Passes

Search period start: 22 October 2021 00:00
Search period end: 01 November 2021 00:00
Orbit: 419 x 429 km, 53.0° (Epoch: 21 October)

Date Brightness Start Highest point End Pass type
(mag) Time Alt. Az. Time Alt. Az. Time Alt. Az.
25 Oct 5.0 19:11:31 10° SSW 19:13:03 21° S 19:13:03 21° S visible
26 Oct 4.6 18:26:11 10° S 18:28:48 21° SE 18:29:19 20° ESE visible
26 Oct 6.1 20:01:51 10° WSW 20:02:24 14° WSW 20:02:24 14° WSW visible
27 Oct 5.2 17:41:16 10° SSE 17:43:04 14° SE 17:44:52 10° E visible
27 Oct 3.8 19:15:56 10° SW 19:18:33 48° SW 19:18:33 48° SW visible
28 Oct 3.4 18:30:09 10° SW 18:33:28 49° SE 18:34:36 33° E visible
28 Oct 6.2 20:07:00 10° W 20:07:40 15° W 20:07:40 15° W visible
29 Oct 4.1 17:44:31 10° SSW 17:47:37 33° SE 17:50:34 11° ENE visible
29 Oct 4.1 19:20:54 10° W 19:23:37 46° WNW 19:23:37 46° WNW visible
30 Oct 3.1 18:34:53 10° WSW 18:38:18 76° NNW 18:39:31 37° NE visible
30 Oct 6.5 20:12:12 10° WNW 20:12:34 12° WNW 20:12:34 12° WNW visible
31 Oct 3.1 17:48:55 10° WSW 17:52:20 78° SSE 17:55:20 13° ENE visible
31 Oct 4.8 19:26:05 10° W 19:28:24 31° NW 19:28:24 31° NW visible
